This demonstration page uses our WeatherBlox Daily Observations layout. Learn more.

Left ArrowRight Arrow

Hourly Observations for July 22, 2018

Temp ( °F °C ) Dew Point ( °F °C ) Humidity (%) Winds ( mph kmh ) Pressure ( in mb ) Visibility ( mi km ) Precip ( " mm )
12:53 am 00:53 Mostly Clear 71 21.7 39 3.9 31 31 WNW 12 19 29.90 1012 10 16 0.00 0.00
1:53 am 01:53 Clear 67 19.4 38 3.3 35 35 NW 13 20 29.93 1014 10 16 0.00 0.00
2:53 am 02:53 Clear 62 16.7 40 4.4 44 44 W 8 13 29.98 1015 10 16 0.00 0.00
3:53 am 03:53 Clear 59 15 40 4.4 49 49 W 5 7 30.02 1017 10 16 0.00 0.00
4:53 am 04:53 Clear 53 11.7 41 5 64 64 SW 8 13 30.06 1018 10 16 0.00 0.00
5:53 am 05:53 Sunny 51 10.6 42 5.6 71 71 WSW 8 13 30.09 1019 10 16 0.00 0.00
6:53 am 06:53 Sunny 57 13.9 43 6.1 60 60 SW 12 19 30.11 1020 10 16 0.00 0.00
7:53 am 07:53 Sunny 60 15.6 44 6.7 56 56 W 10 17 30.14 1021 10 16 0.00 0.00
8:53 am 08:53 Sunny 63 17.2 44 6.7 50 50 W 9 15 30.16 1022 10 16 0.00 0.00
9:53 am 09:53 Sunny 66 18.9 43 6.1 43 43 WNW 13 20 30.17 1022 10 16 0.00 0.00
10:53 am 10:53 Sunny 70 21.1 42 5.6 37 37 WNW 14 22 30.17 1022 10 16 0.00 0.00
11:53 am 11:53 Sunny 73 22.8 42 5.6 33 33 WNW 17 28 30.16 1022 10 16 0.00 0.00
12:53 pm 12:53 Sunny 76 24.4 40 4.4 27 27 WNW 21 33 30.16 1022 10 16 0.00 0.00
1:53 pm 13:53 Sunny 77 25 40 4.4 26 26 NW 17 28 30.17 1022 10 16 0.00 0.00
2:53 pm 14:53 Sunny 77 25 41 5 28 28 NW 21 33 30.17 1022 10 16 0.00 0.00
3:53 pm 15:53 Partly Cloudy 78 25.6 43 6.1 29 29 NW 18 30 30.19 1022 10 16 0.00 0.00
4:53 pm 16:53 Sunny 78 25.6 40 4.4 26 26 NW 16 26 30.20 1023 10 16 0.00 0.00
5:53 pm 17:53 Sunny 78 25.6 39 3.9 25 25 WNW 17 28 30.20 1023 10 16 0.00 0.00
6:53 pm 18:53 Sunny 78 25.6 39 3.9 25 25 WNW 14 22 30.20 1023 10 16 0.00 0.00
7:53 pm 19:53 Sunny 76 24.4 40 4.4 27 27 NW 9 15 30.20 1023 10 16 0.00 0.00
8:53 pm 20:53 Sunny 71 21.7 42 5.6 35 35 NNW 5 7 30.22 1023 10 16 0.00 0.00
9:53 pm 21:53 Clear 67 19.4 41 5 39 39 WNW 3 6 30.23 1024 10 16 0.00 0.00
10:53 pm 22:53 Clear 60 15.6 42 5.6 52 52 Calm 30.24 1024 10 16 0.00 0.00
11:53 pm 23:53 Clear 55 12.8 41 5 59 59 SSW 6 9 30.25 1025 10 16 0.00 0.00

Powered by AerisWeather